Wind_Speed
33 33 33 33 33 34 33 34 35 36 37 39 40 40 40 41 43 45 46 46 46 45 46 47 47 47 47 48 48 48 47 47 46 45 44 44 44 44 44 43 43 41 40 39
33 33 32 32 32 33 33 33 34 35 36 38 40 40 40 41 42 44 45 46 47 47 47 48 48 49 49 49 50 49 49 49 48 46 45 45 45 43 45 44 44 43 42 41
32 31 31 32 32 33 33 33 33 34 34 36 39 40 40 40 41 42 43 45 46 47 47 48 49 49 50 50 50 50 50 50 49 49 48 47 47 46 44 45 45 44 42 42
30 30 31 31 32 32 31 32 33 34 35 36 37 40 38 39 40 41 42 43 45 46 47 48 49 49 50 51 51 50 51 51 51 50 49 48 48 48 46 45 46 46 45 42
31 31 31 31 31 31 30 31 33 33 35 36 37 39 38 38 40 40 41 42 44 46 48 48 49 50 50 51 51 51 51 52 52 51 50 49 49 49 48 48 47 48 48 46
32 31 31 31 31 30 30 30 31 32 34 35 35 37 37 37 37 38 40 41 43 44 46 47 48 49 50 50 51 51 51 52 52 52 51 51 50 50 50 50 49 49 49 48
31 31 31 30 30 29 29 29 30 31 32 34 34 35 37 35 36 37 38 40 41 43 45 46 47 48 49 49 50 51 51 52 53 52 52 52 52 51 51 52 51 50 50 50
32 31 30 29 29 29 29 29 29 30 31 33 33 35 34 35 36 37 38 39 40 41 43 44 46 47 48 49 49 50 51 52 53 53 52 52 52 52 52 53 52 51 50 50
31 31 30 29 28 28 28 28 29 30 31 32 33 35 34 35 36 38 38 39 40 41 43 44 45 45 46 47 48 49 51 51 52 53 52 52 52 53 53 54 54 52 51 51
32 31 30 30 28 27 28 28 28 28 29 30 31 32 33 34 35 37 38 39 40 41 43 44 45 45 45 46 47 49 50 52 52 51 51 52 52 53 54 54 55 54 53 52
31 30 29 29 27 27 27 27 27 28 29 30 31 30 31 32 34 36 37 38 39 40 42 43 44 45 45 46 46 48 49 50 51 52 53 53 52 53 54 54 55 56 54 53
31 31 29 28 27 27 27 28 28 28 29 30 31 30 30 31 33 34 36 37 38 40 42 43 44 45 46 46 47 47 48 49 50 52 53 54 54 53 53 54 55 56 56 54
31 30 29 28 28 27 27 27 28 28 28 29 30 29 29 31 32 33 34 35 37 38 40 42 43 45 46 46 47 47 48 49 50 51 51 53 53 53 53 54 56 57 57 56
31 30 29 29 28 27 26 27 27 28 28 28 28 28 28 30 31 32 33 34 34 36 37 39 41 43 45 46 46 46 48 49 50 51 51 51 52 52 52 54 55 56 57 57
30 30 28 28 28 26 25 25 26 27 27 27 27 27 28 29 28 29 31 32 33 34 35 36 39 41 43 44 45 46 46 48 50 51 52 52 52 52 51 52 54 55 56 57
29 28 27 26 25 25 24 24 24 25 25 26 26 26 27 28 28 28 28 30 32 33 35 37 37 39 42 43 44 45 46 47 49 50 51 50 51 52 51 51 51 52 53 54
27 27 27 26 25 25 24 24 24 24 24 25 25 25 26 27 28 28 29 29 31 33 34 35 37 38 40 42 43 44 45 46 48 49 50 50 51 51 51 51 51 51 52 52
27 27 27 27 26 25 23 22 23 23 22 23 24 24 25 26 26 27 29 29 30 31 33 34 35 37 40 41 42 43 44 46 47 48 49 49 50 50 50 50 51 51 50 51
27 27 27 26 26 25 23 22 22 22 21 22 23 23 24 24 25 26 27 28 29 30 31 33 34 36 39 41 42 43 44 45 47 47 48 49 50 50 50 50 50 51 51 51
27 26 26 25 25 25 23 23 22 23 22 22 22 23 23 24 25 25 26 28 29 29 30 32 33 35 38 39 41 42 44 45 45 47 48 49 50 49 50 51 51 50 51 51
26 26 26 25 25 24 23 24 23 23 23 23 23 23 24 24 25 25 26 26 28 29 30 31 32 34 36 38 39 40 41 43 44 46 47 48 49 50 50 51 51 51 51 51
27 27 26 26 25 25 24 24 24 24 23 23 23 24 25 25 26 26 26 27 27 27 29 30 31 32 34 35 37 38 39 41 43 44 45 46 47 49 49 49 50 51 50 50
27 27 27 26 25 25 25 24 24 25 25 25 25 25 25 25 26 26 26 26 27 27 28 29 29 31 32 34 35 35 37 38 40 41 43 44 45 47 49 49 48 50 50 49
27 27 27 27 25 26 26 25 26 26 26 26 26 26 26 26 26 26 26 26 26 27 28 28 28 29 30 32 34 33 34 35 37 38 40 41 42 44 47 48 48 47 48 48
27 26 27 26 26 26 26 27 27 27 27 27 27 27 27 27 27 27 27 27 26 27 28 28 28 28 29 30 32 32 33 33 34 36 38 39 41 41 43 45 46 46 45 46
27 27 27 26 26 26 26 27 27 27 27 27 26 26 27 27 28 28 28 28 28 27 28 27 27 27 27 29 29 30 31 31 32 34 35 38 39 40 41 43 44 44 43 44
Wind_Direction
292 290 288 286 281 278 274 271 267 263 260 257 254 252 251 250 248 245 243 241 241 240 240 238 236 235 235 236 236 236 236 236 235 234 233 233 233 233 233 233 233 233 233 233
295 292 292 288 283 279 274 272 269 266 262 259 256 253 250 250 247 245 243 241 241 240 239 238 236 236 235 235 236 235 236 236 235 234 235 235 234 233 233 232 232 232 233 233
298 297 293 288 283 280 275 273 271 268 265 263 260 254 250 249 248 246 243 242 241 240 239 237 236 237 236 236 236 236 236 235 235 236 236 236 236 235 234 232 231 232 232 234
300 298 294 289 284 281 277 275 272 270 268 265 262 257 251 250 249 247 244 243 241 240 239 237 236 237 237 237 237 236 236 235 235 236 236 236 236 236 235 234 233 233 233 234
302 300 296 291 287 282 279 278 274 272 272 269 263 260 255 252 250 247 246 244 243 241 240 238 238 237 236 237 238 237 236 235 235 236 236 236 236 236 235 235 234 233 233 234
304 301 299 294 288 283 280 280 276 273 273 269 265 261 257 253 251 247 246 246 244 242 242 240 239 238 237 237 238 238 237 236 236 236 236 236 236 236 235 235 234 233 233 234
304 301 298 296 289 283 281 280 279 277 274 271 267 262 260 256 252 249 247 246 246 244 242 241 239 239 237 237 237 237 237 236 236 236 236 236 236 236 236 235 234 234 234 235
306 301 299 296 291 286 283 280 279 279 278 273 267 263 261 258 255 251 248 247 246 245 243 241 239 239 238 238 238 237 237 237 236 235 236 236 235 235 235 235 234 234 234 236
306 303 301 297 293 288 284 280 279 278 277 276 271 265 262 259 258 254 250 248 247 246 244 242 241 240 238 238 237 237 237 236 236 236 236 236 236 235 235 235 235 235 235 236
305 303 300 298 293 288 284 280 279 278 276 276 274 269 266 262 261 257 252 249 247 246 245 243 241 239 239 237 236 236 236 236 236 236 235 236 236 236 236 236 236 236 236 237
308 305 302 298 293 290 284 279 276 276 275 275 275 274 269 266 264 261 256 252 250 249 246 244 242 240 239 238 238 237 237 237 237 237 237 236 237 237 237 237 237 236 237 238
308 306 302 298 295 292 285 278 275 274 275 275 274 275 271 269 267 264 259 255 252 250 248 245 242 241 240 239 239 239 239 238 238 238 238 238 237 237 237 238 237 236 236 238
308 306 302 299 296 293 288 280 276 274 274 274 272 273 272 270 268 266 261 257 254 251 248 246 244 242 241 240 240 240 240 239 238 237 237 238 238 238 237 237 238 239 237 237
306 306 304 300 298 296 290 284 278 274 273 275 273 273 271 271 269 266 263 260 258 253 249 247 244 242 240 240 240 240 240 240 240 238 237 238 239 239 238 237 237 238 238 237
307 305 305 301 298 296 292 288 282 277 274 274 275 275 273 273 271 267 264 261 258 254 250 248 245 242 240 239 239 239 239 240 241 240 239 238 239 240 239 238 237 238 238 238
308 307 306 304 299 297 294 291 286 280 278 276 275 275 274 273 272 269 266 262 259 255 251 248 246 244 241 240 239 239 239 240 241 241 240 239 239 240 240 239 238 238 238 239
308 308 307 306 302 299 298 294 288 284 281 278 277 277 275 273 271 270 267 263 260 257 253 250 247 246 243 242 241 240 239 240 241 241 241 241 241 240 240 239 238 239 239 239
308 308 308 307 305 303 301 298 293 288 284 279 278 278 278 276 274 273 270 267 263 259 256 254 251 247 245 243 242 241 241 241 241 241 241 242 242 241 240 239 238 238 239 239
307 307 309 309 307 306 302 299 296 292 286 281 280 279 279 278 276 274 271 267 265 261 257 255 254 250 247 245 244 243 243 243 242 242 242 242 242 242 241 240 240 240 241 240
306 306 307 307 306 307 304 298 296 294 289 285 283 282 281 280 277 275 272 268 266 263 259 256 255 252 249 247 247 247 245 245 244 244 243 242 242 242 242 241 241 241 242 241
308 307 306 305 303 304 303 299 297 294 293 289 287 286 283 280 279 277 274 271 267 264 262 259 256 253 250 247 247 247 247 246 245 245 244 244 243 242 242 242 242 242 243 242
308 307 306 305 303 301 299 297 295 293 292 289 287 286 284 281 280 278 276 273 270 266 263 261 257 254 251 248 247 247 246 246 246 246 245 245 243 242 242 242 243 242 242 243
307 306 304 303 302 300 298 295 294 292 292 291 287 286 285 284 282 280 278 277 274 269 265 261 259 257 254 251 250 249 248 247 247 246 245 245 244 242 242 242 242 243 243 243
307 306 304 302 300 298 297 293 291 292 291 290 288 287 287 285 284 282 280 280 277 272 267 264 262 260 258 255 252 251 250 249 248 246 245 244 245 244 242 241 242 242 242 242
310 307 305 303 301 298 297 294 291 290 290 289 288 287 287 287 285 283 281 280 279 276 270 266 264 263 261 258 255 252 252 250 249 248 246 245 245 244 242 241 241 241 242 241
310 308 307 305 302 299 298 296 294 291 290 290 290 287 287 287 286 284 282 281 279 278 275 270 267 265 262 258 255 254 253 251 250 250 248 247 245 243 241 241 241 241 242 241
Height
5645 5643 5640 5639 5636 5635 5635 5635 5635 5636 5636 5637 5639 5642 5644 5645 5648 5652 5656 5660 5664 5669 5673 5678 5683 5687 5692 5697 5702 5707 5712 5716 5721 5725 5730 5734 5738 5743 5747 5752 5757 5762 5766 5771
5637 5634 5633 5630 5627 5626 5625 5625 5625 5626 5626 5627 5628 5631 5633 5634 5637 5640 5644 5648 5652 5657 5661 5666 5672 5676 5681 5686 5691 5696 5701 5706 5710 5715 5720 5724 5729 5732 5737 5743 5748 5753 5758 5762
5628 5627 5623 5621 5619 5617 5616 5616 5617 5617 5617 5616 5617 5619 5622 5624 5626 5630 5633 5637 5641 5645 5649 5654 5660 5665 5669 5674 5679 5684 5689 5695 5699 5704 5709 5713 5718 5722 5726 5733 5738 5744 5749 5753
5620 5618 5615 5612 5611 5609 5608 5609 5608 5607 5607 5607 5607 5607 5613 5614 5616 5619 5623 5626 5629 5633 5637 5642 5648 5653 5658 5663 5667 5672 5678 5683 5688 5693 5697 5703 5707 5712 5718 5723 5729 5734 5740 5744
5613 5611 5607 5604 5603 5601 5601 5600 5599 5598 5597 5597 5597 5597 5603 5604 5607 5610 5613 5616 5619 5622 5626 5631 5636 5641 5646 5651 5656 5661 5666 5671 5676 5681 5686 5691 5697 5702 5708 5712 5718 5724 5729 5734
5606 5603 5599 5597 5595 5593 5592 5592 5590 5589 5588 5588 5589 5589 5592 5595 5598 5601 5603 5606 5608 5612 5615 5619 5624 5628 5633 5638 5643 5648 5654 5659 5665 5670 5675 5680 5686 5691 5697 5702 5707 5713 5719 5724
5599 5596 5592 5590 5588 5586 5584 5584 5582 5580 5578 5579 5580 5580 5583 5586 5588 5591 5593 5596 5598 5601 5604 5608 5612 5616 5621 5626 5632 5636 5642 5647 5653 5658 5663 5669 5675 5680 5686 5691 5696 5702 5708 5713
5591 5589 5586 5582 5580 5578 5577 5575 5574 5572 5570 5571 5571 5571 5575 5577 5578 5581 5583 5585 5588 5591 5594 5597 5601 5605 5610 5615 5620 5625 5630 5635 5641 5647 5652 5657 5663 5668 5674 5679 5685 5691 5697 5703
5583 5581 5578 5575 5572 5571 5569 5567 5567 5565 5563 5563 5562 5564 5566 5567 5569 5571 5573 5576 5578 5581 5584 5587 5590 5594 5599 5603 5608 5613 5618 5623 5629 5634 5641 5646 5651 5657 5662 5667 5673 5679 5685 5690
5576 5574 5572 5568 5566 5563 5562 5560 5559 5557 5555 5554 5555 5556 5558 5558 5560 5561 5563 5566 5568 5571 5574 5577 5580 5584 5588 5592 5597 5602 5606 5611 5617 5623 5629 5634 5639 5645 5650 5656 5661 5667 5673 5678
5570 5567 5565 5561 5558 5556 5555 5553 5551 5550 5549 5547 5547 5551 5550 5550 5551 5552 5554 5556 5558 5561 5563 5566 5570 5573 5577 5581 5586 5590 5595 5600 5605 5610 5616 5622 5627 5633 5638 5643 5649 5654 5660 5666
5563 5560 5558 5555 5552 5549 5547 5546 5545 5544 5542 5541 5540 5545 5542 5542 5542 5543 5544 5546 5548 5550 5553 5556 5559 5563 5567 5571 5575 5580 5584 5588 5593 5598 5604 5609 5615 5620 5625 5630 5636 5641 5647 5653
5557 5554 5551 5549 5548 5544 5541 5538 5537 5536 5535 5534 5533 5538 5534 5534 5534 5534 5535 5537 5538 5541 5543 5546 5549 5553 5556 5560 5564 5569 5573 5577 5582 5586 5592 5597 5602 5607 5612 5617 5623 5628 5634 5640
5550 5547 5545 5542 5538 5536 5534 5532 5530 5529 5528 5527 5527 5528 5528 5526 5526 5526 5527 5528 5529 5531 5533 5536 5539 5542 5546 5550 5554 5557 5561 5565 5570 5574 5578 5584 5589 5594 5599 5604 5610 5615 5621 5627
5543 5541 5538 5535 5532 5529 5527 5525 5523 5522 5521 5521 5521 5520 5520 5519 5518 5518 5518 5519 5521 5522 5524 5526 5529 5532 5535 5539 5543 5547 5550 5554 5558 5562 5567 5572 5577 5581 5586 5591 5597 5602 5608 5614
5537 5534 5532 5529 5526 5523 5521 5519 5517 5516 5515 5514 5513 5514 5513 5511 5511 5510 5510 5511 5512 5513 5515 5517 5519 5522 5525 5529 5533 5536 5540 5543 5547 5551 5555 5560 5565 5569 5574 5578 5584 5590 5595 5601
5531 5528 5526 5524 5521 5518 5516 5514 5512 5510 5509 5508 5507 5507 5505 5505 5504 5503 5503 5503 5504 5504 5506 5508 5510 5513 5516 5519 5522 5526 5529 5532 5536 5540 5544 5549 5553 5557 5562 5566 5572 5577 5583 5588
5526 5523 5519 5517 5516 5513 5513 5508 5506 5504 5503 5501 5500 5500 5499 5498 5497 5496 5496 5496 5496 5497 5498 5499 5501 5503 5506 5509 5512 5515 5518 5522 5525 5529 5533 5537 5541 5546 5550 5555 5560 5565 5571 5576
5521 5517 5514 5511 5508 5507 5506 5503 5500 5499 5498 5496 5494 5493 5492 5491 5490 5490 5489 5488 5488 5488 5489 5490 5492 5494 5496 5499 5502 5505 5508 5511 5514 5518 5522 5526 5530 5534 5539 5544 5549 5554 5558 5564
5515 5512 5510 5506 5502 5501 5501 5498 5494 5493 5492 5490 5488 5487 5486 5484 5484 5484 5482 5481 5480 5480 5480 5481 5482 5484 5486 5489 5491 5494 5497 5500 5504 5507 5510 5514 5518 5523 5527 5532 5537 5542 5546 5551
5510 5507 5504 5500 5497 5496 5495 5491 5489 5488 5487 5484 5482 5481 5479 5477 5476 5476 5474 5474 5473 5472 5472 5473 5473 5475 5476 5479 5481 5483 5486 5489 5492 5495 5499 5502 5506 5511 5516 5521 5526 5530 5535 5540
5505 5502 5499 5495 5492 5493 5488 5486 5484 5482 5479 5477 5476 5474 5472 5471 5469 5468 5467 5466 5465 5465 5464 5464 5465 5466 5467 5469 5471 5473 5476 5478 5481 5485 5488 5491 5494 5499 5504 5509 5513 5518 5523 5527
5500 5497 5493 5491 5490 5485 5482 5480 5478 5475 5473 5471 5469 5468 5466 5464 5462 5461 5460 5458 5457 5457 5456 5456 5456 5457 5458 5459 5461 5463 5465 5468 5470 5473 5477 5480 5483 5488 5492 5497 5502 5506 5510 5515
5495 5491 5488 5485 5482 5479 5476 5473 5471 5469 5467 5465 5462 5461 5459 5457 5455 5454 5452 5451 5450 5449 5448 5448 5448 5449 5449 5450 5451 5453 5455 5457 5460 5463 5466 5469 5473 5477 5481 5485 5490 5494 5499 5503
5489 5485 5481 5479 5476 5473 5470 5467 5465 5462 5460 5458 5456 5454 5451 5450 5448 5446 5445 5443 5442 5441 5440 5440 5440 5440 5440 5441 5442 5444 5446 5448 5450 5452 5456 5459 5463 5466 5470 5474 5478 5483 5488 5493
5483 5480 5476 5473 5470 5467 5464 5460 5458 5455 5453 5450 5448 5446 5444 5442 5440 5439 5437 5436 5434 5433 5432 5432 5432 5432 5432 5432 5434 5435 5437 5439 5441 5443 5446 5449 5452 5456 5460 5464 5468 5472 5477 5481